Satellite: RESURS Catalog number: 25394 Epoch time: 09267.71243262 Element set: 317 Inclination: 098.3338 deg RA of node: 294.9638 deg Eccentricity: 0.0000930 Arg of perigee: 319.6791 deg Mean anomaly: 040.4319 deg Mean motion: 14.24188461 rev/day Decay rate: -5.1e-07 rev/day^2 Epoch rev: 58256 Checksum: 311
Satellite: FENGYUN1 Catalog number: 25730 Epoch time: 09266.92076655 Element set: 0860 Inclination: 098.7619 deg RA of node: 234.1515 deg Eccentricity: 0.0021629 Arg of perigee: 299.4853 deg Mean anomaly: 060.4159 deg Mean motion: 14.07986645 rev/day Decay rate: 2.82e-06 rev/day^2 Epoch rev: 53421 Checksum: 327
Satellite: OKEAN-0 Catalog number: 25860 Epoch time: 09267.58157857 Element set: 792 Inclination: 097.7981 deg RA of node: 244.8725 deg Eccentricity: 0.0000768 Arg of perigee: 104.1782 deg Mean anomaly: 255.9507 deg Mean motion: 14.73588373 rev/day Decay rate: 3.0e-08 rev/day^2 Epoch rev: 54778 Checksum: 354
Satellite: NOAA-16 Catalog number: 26536 Epoch time: 09266.68098490 Element set: 0571 Inclination: 099.1801 deg RA of node: 272.7492 deg Eccentricity: 0.0010719 Arg of perigee: 010.0063 deg Mean anomaly: 350.1301 deg Mean motion: 14.12532008 rev/day Decay rate: -2.35e-06 rev/day^2 Epoch rev: 46420 Checksum: 274
Satellite: NOAA-17 Catalog number: 27453 Epoch time: 09266.85735451 Element set: 0568 Inclination: 098.4727 deg RA of node: 322.4769 deg Eccentricity: 0.0011662 Arg of perigee: 190.8164 deg Mean anomaly: 169.2754 deg Mean motion: 14.24092178 rev/day Decay rate: -5.8e-07 rev/day^2 Epoch rev: 37679 Checksum: 353
Satellite: NOAA-18 Catalog number: 28654 Epoch time: 09266.87792339 Element set: 0055 Inclination: 098.9150 deg RA of node: 209.3834 deg Eccentricity: 0.0015344 Arg of perigee: 084.3210 deg Mean anomaly: 275.9708 deg Mean motion: 14.11288249 rev/day Decay rate: 7.0e-07 rev/day^2 Epoch rev: 22387 Checksum: 329
Satellite: NOAA-19 Catalog number: 33591 Epoch time: 09266.87910306 Element set: 0260 Inclination: 098.7548 deg RA of node: 210.1060 deg Eccentricity: 0.0013737 Arg of perigee: 328.0292 deg Mean anomaly: 032.0041 deg Mean motion: 14.10987920 rev/day Decay rate: 1.5e-07 rev/day^2 Epoch rev: 03235 Checksum: 275
/EX SB KEPS @ AMSAT $ORB09267.M Orbital Elements 09267.MISC
HR AMSAT ORBITAL ELEMENTS FOR MANNED AND MISCELLANEOUS SATELLITES FROM WA5QGD FORT WORTH,TX September 24, 2009 Send Subscribe/unsubscribe to KEPS at http://www.amsat.org/mailman/listinfo/keps BID: ORB09267.M TO ALL RADIO AMATEURS BT
Satellite: HUBBLE Catalog number: 20580 Epoch time: 09264.20478514 Element set: 0451 Inclination: 028.4698 deg RA of node: 195.6356 deg Eccentricity: 0.0003465 Arg of perigee: 221.7899 deg Mean anomaly: 138.2394 deg Mean motion: 15.00831186 rev/day Decay rate: 3.13e-06 rev/day^2 Epoch rev: 86429 Checksum: 313
Satellite: ISS Catalog number: 25544 Epoch time: 09266.84340728 Element set: 0662 Inclination: 051.6391 deg RA of node: 160.3470 deg Eccentricity: 0.0009216 Arg of perigee: 122.3268 deg Mean anomaly: 282.5449 deg Mean motion: 15.74306025 rev/day Decay rate: 1.1653e-04 rev/day^2 Epoch rev: 62149 Checksum: 293
Satellite: CO-58 Catalog number: 28895 Epoch time: 09266.69883262 Element set: 402 Inclination: 098.0434 deg RA of node: 154.4800 deg Eccentricity: 0.0018743 Arg of perigee: 042.3067 deg Mean anomaly: 317.9577 deg Mean motion: 14.59796950 rev/day Decay rate: 1.48e-06 rev/day^2 Epoch rev: 20810 Checksum: 341
Satellite: FALCON Catalog number: 30776 Epoch time: 09267.92099022 Element set: 664 Inclination: 035.4340 deg RA of node: 214.2815 deg Eccentricity: 0.0001159 Arg of perigee: 022.6398 deg Mean anomaly: 337.4376 deg Mean motion: 15.03308892 rev/day Decay rate: 3.76e-06 rev/day^2 Epoch rev: 14011 Checksum: 288
Satellite: MAST Catalog number: 31126 Epoch time: 09266.68198275 Element set: 692 Inclination: 097.9767 deg RA of node: 316.9232 deg Eccentricity: 0.0094608 Arg of perigee: 334.8326 deg Mean anomaly: 024.8271 deg Mean motion: 14.53517352 rev/day Decay rate: -1.5e-07 rev/day^2 Epoch rev: 12934 Checksum: 322
Satellite: CAPE1 Catalog number: 31130 Epoch time: 09267.71372517 Element set: 702 Inclination: 097.9796 deg RA of node: 315.8699 deg Eccentricity: 0.0102718 Arg of perigee: 337.7508 deg Mean anomaly: 021.9253 deg Mean motion: 14.52088193 rev/day Decay rate: 8.8e-07 rev/day^2 Epoch rev: 12913 Checksum: 320
Satellite: COMPASS Catalog number: 32787 Epoch time: 09267.24197014 Element set: 471 Inclination: 097.9334 deg RA of node: 330.1796 deg Eccentricity: 0.0016944 Arg of perigee: 072.1147 deg Mean anomaly: 288.1901 deg Mean motion: 14.81658306 rev/day Decay rate: 2.12e-06 rev/day^2 Epoch rev: 7611 Checksum: 301
Satellite: AAUSAT2 Catalog number: 32788 Epoch time: 09267.74178269 Element set: 467 Inclination: 097.9329 deg RA of node: 330.7497 deg Eccentricity: 0.0016680 Arg of perigee: 071.0661 deg Mean anomaly: 289.2347 deg Mean motion: 14.81783954 rev/day Decay rate: 3.00e-06 rev/day^2 Epoch rev: 7619 Checksum: 349
Satellite: DO-64 Catalog number: 32789 Epoch time: 09267.76346464 Element set: 482 Inclination: 097.9367 deg RA of node: 330.9995 deg Eccentricity: 0.0016792 Arg of perigee: 069.1001 deg Mean anomaly: 291.1998 deg Mean motion: 14.81797022 rev/day Decay rate: 4.69e-06 rev/day^2 Epoch rev: 7619 Checksum: 370
Satellite: CO-66 Catalog number: 32791 Epoch time: 09267.16135932 Element set: 463 Inclination: 097.9349 deg RA of node: 330.1327 deg Eccentricity: 0.0017298 Arg of perigee: 069.4864 deg Mean anomaly: 290.8203 deg Mean motion: 14.81481288 rev/day Decay rate: 3.76e-06 rev/day^2 Epoch rev: 7606 Checksum: 339
Satellite: RS-30 Catalog number: 32953 Epoch time: 09266.30655574 Element set: 0414 Inclination: 082.5039 deg RA of node: 195.6012 deg Eccentricity: 0.0019024 Arg of perigee: 329.3307 deg Mean anomaly: 030.6658 deg Mean motion: 12.43003151 rev/day Decay rate: 1.0e-07 rev/day^2 Epoch rev: 06058 Checksum: 265
Satellite: TACSAT-3 Catalog number: 35001 Epoch time: 09267.68744490 Element set: 104 Inclination: 040.4564 deg RA of node: 005.4931 deg Eccentricity: 0.0023397 Arg of perigee: 184.6781 deg Mean anomaly: 175.3817 deg Mean motion: 15.39197617 rev/day Decay rate: 2.513e-05 rev/day^2 Epoch rev: 1968 Checksum: 312
Satellite: PHARMSAT Catalog number: 35002 Epoch time: 09267.68883938 Element set: 101 Inclination: 040.4699 deg RA of node: 004.7396 deg Eccentricity: 0.0026619 Arg of perigee: 188.7586 deg Mean anomaly: 171.2767 deg Mean motion: 15.39949571 rev/day Decay rate: 2.253e-05 rev/day^2 Epoch rev: 1968 Checksum: 345
Satellite: HAWKSAT1 Catalog number: 35003 Epoch time: 09266.67122187 Element set: 105 Inclination: 040.4631 deg RA of node: 010.1201 deg Eccentricity: 0.0026214 Arg of perigee: 185.0812 deg Mean anomaly: 174.9742 deg Mean motion: 15.40694234 rev/day Decay rate: 4.531e-05 rev/day^2 Epoch rev: 1954 Checksum: 250
Satellite: CP6 Catalog number: 35004 Epoch time: 09266.66990159 Element set: 99 Inclination: 040.4607 deg RA of node: 010.1109 deg Eccentricity: 0.0025561 Arg of perigee: 184.5654 deg Mean anomaly: 175.4935 deg Mean motion: 15.40762201 rev/day Decay rate: 5.363e-05 rev/day^2 Epoch rev: 1953 Checksum: 294
Satellite: AEROCUB3 Catalog number: 35005 Epoch time: 09267.20387752 Element set: 100 Inclination: 040.4747 deg RA of node: 007.2635 deg Eccentricity: 0.0025612 Arg of perigee: 185.9443 deg Mean anomaly: 174.1073 deg Mean motion: 15.40556961 rev/day Decay rate: 4.854e-05 rev/day^2 Epoch rev: 1961 Checksum: 285
Satellite: DRAGNSAT Catalog number: 35690 Epoch time: 09267.13185014 Element set: 53 Inclination: 051.6396 deg RA of node: 155.5580 deg Eccentricity: 0.0002188 Arg of perigee: 283.2389 deg Mean anomaly: 076.8367 deg Mean motion: 15.82789980 rev/day Decay rate: 2.9262e-04 rev/day^2 Epoch rev: 880 Checksum: 329
Satellite: POLLUX Catalog number: 35693 Epoch time: 09267.15150619 Element set: 55 Inclination: 051.6398 deg RA of node: 155.6978 deg Eccentricity: 0.0002999 Arg of perigee: 202.5979 deg Mean anomaly: 157.5010 deg Mean motion: 15.82117463 rev/day Decay rate: 2.5324e-04 rev/day^2 Epoch rev: 877 Checksum: 326
Satellite: CASTOR Catalog number: 35694 Epoch time: 09267.80341062 Element set: 53 Inclination: 051.6408 deg RA of node: 152.5617 deg Eccentricity: 0.0003143 Arg of perigee: 214.4095 deg Mean anomaly: 145.6690 deg Mean motion: 15.81064969 rev/day Decay rate: 1.3764e-04 rev/day^2 Epoch rev: 887 Checksum: 301
Satellite: METEOR-M Catalog number: 35865 Epoch time: 09267.76253122 Element set: 8 Inclination: 098.8003 deg RA of node: 317.9196 deg Eccentricity: 0.0003392 Arg of perigee: 063.6114 deg Mean anomaly: 296.5400 deg Mean motion: 14.21825734 rev/day Decay rate: 1.76e-06 rev/day^2 Epoch rev: 100 Checksum: 277
Satellite: OBJECT-B Catalog number: 35866 Epoch time: 09267.76020534 Element set: 9 Inclination: 098.8007 deg RA of node: 317.9269 deg Eccentricity: 0.0004133 Arg of perigee: 060.3718 deg Mean anomaly: 299.7853 deg Mean motion: 14.22295747 rev/day Decay rate: 1.78e-06 rev/day^2 Epoch rev: 100 Checksum: 306
Satellite: FREGAT-I Catalog number: 35867 Epoch time: 09267.69394093 Element set: 19 Inclination: 097.3746 deg RA of node: 317.6403 deg Eccentricity: 0.0008464 Arg of perigee: 263.5757 deg Mean anomaly: 096.4296 deg Mean motion: 15.22710586 rev/day Decay rate: 2.263e-05 rev/day^2 Epoch rev: 106 Checksum: 325
/EX